Home > Weather > Astana > Past weeks

Flag for Kazakhstan Weather for the Past 2 Weeks in Astana, Kazakhstan

Now
12 °F

Snow. Mostly cloudy.


Feels Like: 3 °F
Forecast: 3 / 12 °F
Wind: 6 mph from South

Location: Astana

Current Time: Feb 13, 2016 at 3:11:09 AM

Latest Report: Feb 13, 2016 at 2:30 AM


Visibility: 2 mi

Pressure: 30.42 "Hg

Humidity: 85%

Dew point: 9 °F

Location of AstanaLocation

Historic Weather in Astana — Graph

°F

Astana Temperature Yesterday

Maximum temperature yesterday: 14 °F (at 4:30 PM)
Minimum temperature yesterday: 5 °F (at 5:00 AM)
Average temperature yesterday: 10 °F

High & Low Weather Summary for the Past Weeks

 TemperatureHumidityPressure
High34 °F (Feb 5, 11:30 PM)100% (Feb 1, 2:00 AM)30.74 "Hg (Feb 1, 2:00 AM)
Low-15 °F (Feb 10, 9:00 AM)60% (Feb 6, 3:00 PM)29.62 "Hg (Feb 7, 8:00 PM)
Average13 °F84%30.26 "Hg
* Reported Jan 29 2:00 AM — Feb 13 2:00 AM, Astana, Weather by CustomWeather, © 2016

Note: Actual official high and low records may vary slightly from our data, if they occured in-between our weather recording intervals... More about our weather records

Advertising

Astana Weather History for the Previous 24 Hours

 ConditionsComfort  
Time TempWeatherWind HumidityBarometerVisibility
2:00 AM
Sat, Feb 13
12 °FSnow. Mostly cloudy.10 mph92%30.42 "Hg2 mi
1:30 AM14 °FSnow. Mostly cloudy.6 mph85%30.42 "Hg2 mi
1:00 AM14 °FSnow. Mostly cloudy.8 mph85%30.42 "Hg2 mi
12:30 AM14 °FSnow. Mostly cloudy.8 mph85%30.42 "Hg2 mi
12:00 AM14 °FSnow. Mostly cloudy.8 mph85%30.42 "Hg1 mi
11:30 PM
Fri, Feb 12
14 °FSnow. Mostly cloudy.8 mph92%30.42 "Hg1 mi
11:00 PM14 °FSnow. Mostly cloudy.8 mph85%30.42 "Hg1 mi
10:30 PM14 °FSnow. Mostly cloudy.8 mph85%30.42 "Hg1 mi
10:00 PM14 °FSnow. Mostly cloudy.6 mph92%30.42 "Hg1 mi
9:30 PM14 °FSnow. Mostly cloudy.3 mph92%30.42 "Hg1 mi
9:00 PM14 °FSnow. Mostly cloudy.3 mph85%30.42 "Hg1 mi
8:30 PM14 °FSnow. Mostly cloudy.3 mph85%30.42 "Hg2 mi
8:00 PM14 °FSnow. Overcast.6 mph85%30.42 "Hg1 mi
7:30 PM14 °FSnow. Mostly cloudy.6 mph85%30.42 "Hg1 mi
7:00 PM14 °FSnow. Mostly cloudy.8 mph85%30.42 "Hg2 mi
6:30 PM12 °FSnow. Mostly cloudy.8 mph92%30.42 "Hg1 mi
6:00 PM14 °FSnow. Mostly cloudy.10 mph79%30.42 "Hg1 mi
5:30 PM12 °FSnow. Mostly cloudy.10 mph85%30.42 "Hg1 mi
5:00 PM14 °FSnow. Mostly cloudy.13 mph79%30.42 "Hg1 mi
4:30 PM14 °FSnow. Mostly cloudy.13 mph79%30.42 "Hg2 mi
4:00 PM12 °FSnow. More clouds than sun.13 mph85%30.42 "Hg1 mi
3:30 PM12 °FSnow. More clouds than sun.15 mph85%30.42 "Hg2 mi
3:00 PM12 °FSnow. More clouds than sun.15 mph85%30.42 "Hg2 mi
2:30 PM12 °FSnow. More clouds than sun.17 mph79%30.42 "Hg1 mi
2:00 PM12 °FSnow. More clouds than sun.17 mph79%30.42 "Hg2 mi
1:30 PM10 °FSnow. More clouds than sun.17 mph85%30.45 "Hg1 mi
1:00 PM10 °FSnow. More clouds than sun.15 mph85%30.45 "Hg1 mi
12:30 PM10 °FLight snow. More clouds than sun.15 mph85%30.45 "Hg2 mi
12:00 PM10 °FSnow. More clouds than sun.15 mph79%30.45 "Hg1 mi
11:30 AM10 °FSnow. More clouds than sun.15 mph79%30.45 "Hg2 mi
11:00 AM9 °FSnow. More clouds than sun.13 mph85%30.45 "Hg2 mi
10:30 AM7 °FLight snow. More clouds than sun.13 mph85%30.45 "Hg4 mi
10:00 AM7 °FMostly cloudy.10 mph85%30.45 "HgN/A
9:30 AM9 °FPartly cloudy.13 mph78%30.45 "HgN/A
9:00 AM7 °FSnow flurries. Overcast.13 mph78%30.45 "Hg4 mi
8:30 AM7 °FOvercast.15 mph78%30.45 "HgN/A
8:00 AM7 °FSnow flurries. Overcast.13 mph78%30.48 "HgN/A
7:30 AM7 °FSnow flurries. Overcast.13 mph78%30.48 "HgN/A
7:00 AM7 °FSnow flurries. Overcast.13 mph78%30.48 "HgN/A
6:30 AM5 °FSnow flurries. Overcast.10 mph78%30.48 "HgN/A
6:00 AM5 °FPassing clouds.10 mph78%30.48 "HgN/A
5:30 AM7 °FPassing clouds.8 mph78%30.51 "HgN/A
5:00 AM5 °FPassing clouds.10 mph78%30.51 "HgN/A
4:00 AM7 °FLight snow. Overcast.15 mph78%30.51 "HgN/A
3:30 AM9 °FLight snow. Overcast.15 mph78%30.51 "HgN/A
3:00 AM9 °FLight snow. Overcast.10 mph78%30.54 "HgN/A
Weather by CustomWeather, © 2016

See weather overviewHow to use our weather pages